Terug naar catalogus

NAVIGATOR

ActiefSSO
NORAD 69887·PAYLOAD·🇺🇸 United States

Gelanceerd Jul 7, 2026 vanaf Vandenberg Space Force Base

Loading…

Volgende Passages (komende 24 uur)

TLE

VersSource: Space-Track

Epoch: Sep 14, 2026, 03:50 UTC

1 69887U 26156U   26257.15975500  .00000465  00000-0  51623-4 0  9998
2 69887  97.7487 156.4776 0005585 288.8593  71.2020 14.91824770 10268

Volg NAVIGATOR in realtime met AllMySat

Download on the App Store